Weather History for Middleton, WI

Change the Weather History Date:

Saturday, April 13, 2013

  Actual Average (KMSN) Record (KMSN)
Temperature  
Mean Temperature 35 °F 46 °F  
Max Temperature 40 °F 56 °F 78 °F (1938)
Min Temperature 31 °F 35 °F 15 °F (1997)
Degree Days  
Heating Degree Days 30 19  
Month to date heating degree days 285  
Since 1 July heating degree days 6734  
Cooling Degree Days 0 0  
Month to date cooling degree days 0  
Year to date cooling degree days 0  
Moisture  
Dew Point 27 °F    
Average Humidity 72    
Maximum Humidity 93    
Minimum Humidity 57    
Precipitation  
Precipitation 0.00 in 0.12 in 2.63 in (2014)
Month to date precipitation 1.43  
Year to date precipitation 6.31  
Snow  
Snow 0.00 in 0.10 in 3.20 in (1933)
Month to date snowfall 1.6  
Since 1 July snowfall 49.7  
Snow Depth -    
Sea Level Pressure  
Sea Level Pressure 29.87 in    
Wind  
Wind Speed 11 mph (West)    
Max Wind Speed 18 mph    
Max Gust Speed 25 mph    
Visibility 10 miles    
Events      
T = Trace of Precipitation, MM = Missing Value Source: NWS Daily Summary

Daily Weather History Graph

Daily Weather History Graph

Search for Another Location

Airport:

Trip Planner

Search our weather history database for the weather conditions in past years. The results will help you decide how hot, cold, wet, or windy it might be!

Date:

Astronomy

Apr. 13, 2013 Rise Set
Actual Time 6:19 AM CDT 7:38 PM CDT
Civil Twilight 5:49 AM CDT 8:08 PM CDT
Nautical Twilight 5:14 AM CDT 8:43 PM CDT
Astronomical Twilight 4:36 AM CDT 9:21 PM CDT
Moon 8:06 AM CDT (4/13) 11:07 PM CDT (4/13)
Length of Visible Light 14h 18m
Length of Day
13h 19m
Waxing Crescent, 10% of the Moon is Illuminated
Apr 13
Waxing Crescent
Apr 18
First Quarter
Apr 25
Full
May 2
Last Quarter
May 9
New

Hourly Weather History & Observations

Time (CDT) Temp. Windchill Dew Point Humidity Pressure Visibility Wind Dir Wind Speed Gust Speed Precip Events Conditions
12:15 AM 35.1 °F 26.9 °F 28.2 °F 76% 29.80 in 10.0 mi West 11.5 mph - N/A   Overcast
12:35 AM 34.9 °F 26.2 °F 28.4 °F 77% 29.80 in 10.0 mi West 12.7 mph 17.3 mph N/A   Overcast
12:55 AM 34.9 °F 27.1 °F 28.4 °F 77% 29.80 in 10.0 mi West 10.4 mph - N/A   Overcast
1:15 AM 34.9 °F 27.7 °F 28.4 °F 77% 29.80 in 10.0 mi West 9.2 mph - N/A   Overcast
1:35 AM 34.9 °F 26.6 °F 28.4 °F 77% 29.80 in 10.0 mi WSW 11.5 mph - N/A   Overcast
1:55 AM 34.9 °F 26.6 °F 28.4 °F 77% 29.80 in 10.0 mi West 11.5 mph 16.1 mph N/A   Overcast
2:15 AM 34.9 °F 27.7 °F 28.4 °F 77% 29.80 in 10.0 mi WSW 9.2 mph - N/A   Overcast
2:35 AM 34.9 °F 27.1 °F 28.4 °F 77% 29.79 in 10.0 mi WSW 10.4 mph 18.4 mph N/A   Overcast
2:55 AM 34.7 °F 26.9 °F 28.9 °F 79% 29.79 in 10.0 mi WSW 10.4 mph - N/A   Overcast
3:15 AM 34.7 °F 26.9 °F 29.1 °F 80% 29.79 in 10.0 mi West 10.4 mph 16.1 mph N/A   Overcast
3:35 AM 34.7 °F 28.1 °F 28.9 °F 79% 29.79 in 10.0 mi WSW 8.1 mph - N/A   Overcast
3:55 AM 34.3 °F 26.5 °F 28.9 °F 81% 29.79 in 10.0 mi West 10.4 mph 16.1 mph N/A   Overcast
4:15 AM 34.3 °F 25.9 °F 29.3 °F 82% 29.79 in 10.0 mi West 11.5 mph - N/A   Overcast
4:35 AM 34.2 °F 25.2 °F 29.1 °F 82% 29.79 in 10.0 mi West 12.7 mph 16.1 mph N/A   Overcast
4:55 AM 34.2 °F 25.7 °F 29.1 °F 82% 29.79 in 10.0 mi West 11.5 mph - N/A   Overcast
5:15 AM 34.0 °F 25.0 °F 29.1 °F 82% 29.79 in 10.0 mi West 12.7 mph 17.3 mph N/A   Overcast
5:35 AM 34.0 °F 25.5 °F 29.1 °F 82% 29.79 in 10.0 mi WSW 11.5 mph 16.1 mph N/A   Overcast
5:55 AM 34.0 °F 25.5 °F 28.9 °F 82% 29.79 in 10.0 mi West 11.5 mph 17.3 mph N/A   Overcast
6:15 AM 33.8 °F 25.8 °F 29.1 °F 83% 29.80 in 10.0 mi West 10.4 mph - N/A   Overcast
6:35 AM 33.8 °F 25.3 °F 28.9 °F 82% 29.80 in 10.0 mi West 11.5 mph - N/A   Overcast
6:55 AM 33.8 °F 25.3 °F 28.8 °F 82% 29.81 in 10.0 mi West 11.5 mph - N/A   Overcast
7:15 AM 33.8 °F 24.8 °F 28.8 °F 82% 29.82 in 10.0 mi West 12.7 mph - N/A   Overcast
7:35 AM 34.0 °F 24.6 °F 28.2 °F 79% 29.83 in 10.0 mi West 13.8 mph 19.6 mph N/A   Overcast
7:55 AM 34.0 °F 24.2 °F 28.2 °F 79% 29.83 in 10.0 mi WNW 15.0 mph 19.6 mph N/A   Overcast
8:15 AM 35.6 °F 25.9 °F 27.3 °F 72% 29.84 in 10.0 mi West 16.1 mph 21.9 mph N/A   Mostly Cloudy
8:35 AM 35.1 °F 24.8 °F 26.8 °F 72% 29.84 in 10.0 mi West 17.3 mph - N/A   Overcast
8:55 AM 35.6 °F 25.9 °F 26.1 °F 68% 29.85 in 10.0 mi West 16.1 mph 23.0 mph N/A   Mostly Cloudy
9:15 AM 35.8 °F 26.9 °F 25.5 °F 66% 29.85 in 10.0 mi WNW 13.8 mph 18.4 mph N/A   Mostly Cloudy
9:35 AM 37.2 °F 28.7 °F 27.1 °F 67% 29.85 in 10.0 mi WNW 13.8 mph 19.6 mph N/A   Overcast
9:55 AM 36.5 °F 27.0 °F 26.1 °F 66% 29.86 in 10.0 mi NW 16.1 mph - N/A   Overcast
10:15 AM 36.1 °F 27.3 °F 25.7 °F 66% 29.86 in 10.0 mi WNW 13.8 mph - N/A   Overcast
10:35 AM 36.1 °F 25.9 °F 25.0 °F 64% 29.87 in 10.0 mi WNW 18.4 mph 24.2 mph N/A   Overcast
10:55 AM 37.2 °F 27.6 °F 25.7 °F 63% 29.88 in 10.0 mi West 17.3 mph 24.2 mph N/A   Overcast
11:15 AM 36.7 °F 27.6 °F 25.3 °F 64% 29.88 in 10.0 mi WNW 15.0 mph 20.7 mph N/A   Overcast
11:35 AM 37.2 °F 28.3 °F 25.5 °F 63% 29.88 in 10.0 mi WNW 15.0 mph 21.9 mph N/A   Overcast
11:55 AM 37.8 °F 28.3 °F 26.1 °F 63% 29.88 in 10.0 mi West 17.3 mph 21.9 mph N/A   Overcast
12:15 PM 37.4 °F 28.5 °F 27.0 °F 66% 29.88 in 10.0 mi WNW 15.0 mph 19.6 mph N/A   Overcast
12:35 PM 38.1 °F 30.2 °F 26.8 °F 64% 29.88 in 10.0 mi West 12.7 mph 21.9 mph N/A   Overcast
12:55 PM 37.6 °F 28.1 °F 25.9 °F 63% 29.89 in 10.0 mi West 17.3 mph - N/A   Overcast
1:15 PM 37.6 °F 28.8 °F 25.5 °F 62% 29.89 in 10.0 mi West 15.0 mph - N/A   Overcast
1:35 PM 37.6 °F 28.8 °F 25.5 °F 62% 29.89 in 10.0 mi West 15.0 mph 20.7 mph N/A   Overcast
1:55 PM 37.2 °F 28.3 °F 25.7 °F 63% 29.90 in 10.0 mi West 15.0 mph 21.9 mph N/A   Overcast
2:15 PM 37.9 °F 29.2 °F 27.7 °F 67% 29.90 in 10.0 mi West 15.0 mph 18.4 mph N/A   Overcast
2:35 PM 37.4 °F 27.5 °F 27.3 °F 67% 29.90 in 10.0 mi WNW 18.4 mph 23.0 mph N/A   Overcast
2:55 PM 38.1 °F 28.4 °F 26.8 °F 64% 29.90 in 10.0 mi WNW 18.4 mph 21.9 mph N/A   Overcast
3:15 PM 38.3 °F 29.7 °F 27.7 °F 66% 29.90 in 10.0 mi WNW 15.0 mph - N/A   Overcast
3:35 PM 39.0 °F 29.9 °F 27.3 °F 63% 29.90 in 10.0 mi West 17.3 mph - N/A   Overcast
3:55 PM 38.7 °F 29.8 °F 27.1 °F 63% 29.90 in 10.0 mi WNW 16.1 mph 25.3 mph N/A   Overcast
4:15 PM 38.5 °F 29.2 °F 26.6 °F 62% 29.90 in 10.0 mi West 17.3 mph 24.2 mph N/A   Overcast
4:35 PM 38.3 °F 30.9 °F 26.4 °F 62% 29.90 in 10.0 mi West 11.5 mph - N/A   Overcast
4:55 PM 38.3 °F 30.9 °F 26.6 °F 63% 29.90 in 10.0 mi West 11.5 mph - N/A   Overcast
5:15 PM 38.3 °F 30.1 °F 25.7 °F 61% 29.90 in 10.0 mi WNW 13.8 mph 18.4 mph N/A   Overcast
5:35 PM 38.3 °F 30.9 °F 25.9 °F 61% 29.91 in 10.0 mi West 11.5 mph 21.9 mph N/A   Overcast
5:55 PM 39.7 °F 31.9 °F 25.5 °F 57% 29.91 in 10.0 mi West 13.8 mph 21.9 mph N/A   Overcast
6:15 PM 38.7 °F 30.9 °F 25.0 °F 58% 29.92 in 10.0 mi West 12.7 mph - N/A   Overcast
6:35 PM 38.5 °F 30.7 °F 24.6 °F 58% 29.92 in 10.0 mi West 12.7 mph - N/A   Mostly Cloudy
6:55 PM 37.6 °F 32.3 °F 24.8 °F 60% 29.92 in 10.0 mi West 6.9 mph - N/A   Mostly Cloudy
7:15 PM 37.6 °F 31.0 °F 24.8 °F 60% 29.93 in 10.0 mi WNW 9.2 mph - N/A   Overcast
7:35 PM 36.9 °F 32.2 °F 25.2 °F 63% 29.93 in 10.0 mi WNW 5.8 mph - N/A   Mostly Cloudy
7:55 PM 37.0 °F 33.3 °F 25.2 °F 62% 29.93 in 10.0 mi WNW 4.6 mph - N/A   Overcast
8:15 PM 36.7 °F 34.1 °F 26.4 °F 66% 29.93 in 10.0 mi NW 3.5 mph - N/A   Overcast
8:35 PM 36.3 °F 33.7 °F 27.1 °F 69% 29.94 in 10.0 mi NNW 3.5 mph - N/A   Overcast
8:55 PM 35.6 °F - 26.6 °F 70% 29.94 in 10.0 mi Calm Calm - N/A   Overcast
9:15 PM 34.3 °F - 27.9 °F 77% 29.94 in 10.0 mi Calm Calm - N/A   Overcast
9:35 PM 33.8 °F - 28.0 °F 79% 29.95 in 10.0 mi Calm Calm - N/A   Mostly Cloudy
9:55 PM 32.2 °F - 26.8 °F 80% 29.97 in 10.0 mi Calm Calm - N/A   Scattered Clouds
10:15 PM 31.8 °F - 26.6 °F 81% 29.97 in 10.0 mi Calm Calm - N/A   Mostly Cloudy
10:35 PM 32.0 °F - 27.1 °F 82% 29.97 in 10.0 mi Calm Calm - N/A   Overcast
10:55 PM 32.0 °F - 28.9 °F 88% 29.97 in 10.0 mi Calm Calm - N/A   Overcast
11:15 PM 32.0 °F - 30.2 °F 93% 29.98 in 10.0 mi Calm Calm - N/A   Overcast
11:35 PM 32.4 °F - 28.0 °F 84% 29.98 in 10.0 mi Calm Calm - N/A   Overcast
11:55 PM 32.5 °F - 28.4 °F 85% 29.99 in 10.0 mi Calm Calm - N/A   Overcast